Theta_e
333 336 337 339 340 341 340 338 336 333 338 339 338 336 335 337 336 334 334 333 333 334 335 333 333 333 331 328 332 332 331 330 326 325 325 326 329 329 331 333 333 338 335
330 336 336 339 340 339 340 339 338 335 331 335 338 339 339 339 336 335 334 333 333 333 330 328 329 328 328 328 324 324 326 325 324 325 325 327 327 328 330 331 333 336 335
328 331 335 337 337 338 338 339 338 337 335 331 331 334 336 336 335 334 333 332 330 328 327 327 327 329 330 330 328 326 326 326 326 325 325 332 333 329 328 330 333 332 333
325 328 330 334 336 336 336 338 338 337 337 336 334 332 332 331 330 330 330 329 327 328 331 331 328 328 331 332 331 330 328 328 327 327 331 329 332 329 328 328 334 332 331
321 322 327 331 332 333 332 333 334 333 333 334 337 337 336 335 334 334 333 331 330 331 332 330 330 329 329 332 331 330 329 327 327 330 331 332 330 332 331 326 327 332 332
321 319 321 323 323 320 320 320 320 323 328 333 336 337 337 337 336 335 334 332 330 330 330 330 330 330 330 329 328 328 324 323 322 328 330 331 331 329 330 331 331 329 327
322 320 320 320 321 321 320 320 320 320 320 319 322 328 333 334 334 333 333 329 330 330 331 333 331 329 330 328 327 325 324 324 326 331 331 330 330 329 328 331 331 330 327
322 322 322 323 323 323 322 322 323 324 324 324 323 322 321 322 323 325 326 328 328 326 325 324 323 323 323 325 326 325 327 326 327 328 328 326 327 327 330 331 331 331 329
324 325 326 326 327 325 324 323 324 323 323 324 325 325 324 324 324 324 324 324 324 325 325 326 327 326 327 327 327 326 326 325 325 324 323 323 323 326 331 330 330 330 330
328 329 330 330 329 328 325 326 325 325 325 325 325 325 325 325 325 326 325 325 325 326 326 327 327 328 327 327 326 325 324 324 323 323 323 322 320 321 327 331 328 328 329
330 332 332 331 330 330 327 327 326 326 326 326 326 325 324 325 326 324 322 323 323 323 323 323 323 323 322 323 322 322 321 320 321 321 321 320 320 321 322 327 329 329 329
333 332 333 333 332 331 329 327 327 327 327 327 327 326 326 326 326 325 323 322 322 321 322 322 321 320 317 316 316 317 317 317 318 319 320 319 319 319 322 325 327 328 329
334 334 333 333 331 327 327 329 327 328 328 328 327 327 327 326 327 327 325 325 324 322 319 318 314 314 314 313 312 313 314 314 317 319 319 318 318 319 319 323 323 325 327
333 334 334 331 325 320 320 325 328 328 328 329 328 327 327 326 326 326 326 323 320 320 319 315 314 314 314 314 313 312 312 313 318 316 314 312 312 313 317 318 320 324 323
333 333 333 327 320 319 323 325 327 328 328 329 328 327 327 326 325 323 322 320 319 320 318 315 316 313 309 307 306 307 307 311 310 308 306 303 303 304 307 312 316 319 321
332 332 331 323 319 320 321 322 324 326 328 329 327 327 327 325 323 321 320 320 319 319 318 318 316 312 307 303 302 302 302 305 303 302 302 304 303 303 303 308 309 311 313
330 331 329 322 319 318 319 321 322 323 324 323 322 323 323 322 319 316 315 315 315 317 319 319 317 313 307 303 302 302 302 302 302 302 302 302 303 302 302 304 304 303 304
329 328 326 321 318 318 318 318 318 318 318 317 317 316 315 315 313 312 312 311 311 314 318 318 316 312 307 303 303 304 303 302 302 302 301 301 301 301 301 301 302 302 302
324 324 324 320 318 318 317 316 315 315 314 313 313 312 311 311 311 311 310 310 310 311 313 314 314 312 307 305 304 303 303 302 302 302 301 301 301 300 300 298 299 300 300
319 322 322 319 317 317 316 315 315 314 312 311 311 310 310 310 310 310 310 310 310 311 311 312 312 310 307 305 304 304 304 303 302 302 302 301 301 299 299 299 299 299 296
315 318 318 317 316 316 315 314 313 311 310 309 309 309 308 308 308 308 309 309 310 311 310 310 310 309 307 305 304 305 305 304 303 303 303 302 299 299 299 301 299 299 298
313 314 314 314 313 311 310 311 310 308 308 308 309 310 310 309 309 308 307 307 308 310 310 310 309 308 306 306 305 306 307 306 303 303 302 301 302 300 300 297 296 296 296
309 309 310 309 308 308 308 309 309 309 309 309 309 309 308 308 307 307 307 307 307 307 308 308 309 308 308 306 305 305 308 308 306 302 302 301 300 300 297 295 295 295 295
308 309 309 310 309 309 308 308 307 308 308 307 306 306 305 305 305 305 305 306 306 307 307 307 307 307 306 307 304 303 303 303 306 307 300 299 298 296 295 295 295 295 294
309 309 309 309 309 309 307 306 307 306 305 305 305 304 304 303 303 304 304 304 304 305 306 305 306 304 305 304 305 304 302 300 298 301 304 301 295 295 295 295 295 295 295
309 309 309 309 308 307 306 306 306 304 304 304 304 303 302 302 303 303 303 302 302 302 302 301 300 300 300 300 299 298 299 301 299 298 298 298 298 298 295 294 294 294 294
Wind_Speed
5 6 6 5 6 7 7 8 9 11 13 14 15 15 12 12 11 10 7 6 4 4 3 2 2 2 2 1 1 2 1 1 2 3 3 3 4 3 3 4 8 10 12
8 7 6 7 7 8 7 7 10 10 12 12 13 13 14 11 10 8 7 7 8 4 1 2 1 3 3 3 2 0 1 3 3 1 3 1 2 2 1 1 4 7 10
9 9 8 7 7 9 9 8 8 8 9 10 11 11 10 10 10 9 8 7 6 4 2 2 3 4 4 4 4 1 1 0 0 1 1 2 1 1 2 3 1 4 8
10 10 9 8 8 8 9 9 8 9 8 7 8 9 8 7 6 7 7 9 7 1 4 6 5 4 3 2 1 2 3 3 3 3 3 2 2 2 3 4 4 4 5
11 12 11 9 8 7 7 7 6 8 7 6 5 5 6 6 7 7 8 9 6 9 8 4 3 3 2 2 3 3 1 3 5 6 5 4 4 5 5 6 6 8 7
12 12 12 11 9 8 8 7 6 7 7 6 5 4 2 2 3 4 6 5 4 5 3 1 1 2 2 1 2 3 4 4 5 6 7 7 6 6 8 7 9 10 10
13 13 12 11 9 8 8 7 7 7 6 5 4 4 2 2 3 2 2 1 2 2 2 3 4 3 4 3 2 3 5 6 4 4 4 5 8 8 11 10 10 11 11
13 13 13 11 8 7 7 6 6 6 6 5 4 3 3 2 2 1 1 1 1 1 2 3 3 3 2 3 4 3 2 2 2 0 2 2 4 7 10 8 6 8 11
13 13 12 10 7 5 5 5 5 4 4 4 2 2 2 2 2 2 2 2 2 2 2 2 3 3 4 4 3 3 3 2 2 2 2 3 5 5 9 9 9 10 13
12 11 9 8 5 3 3 3 4 3 3 3 2 1 1 2 2 2 3 3 3 4 4 3 3 3 3 3 2 2 2 3 3 3 3 3 4 7 7 6 7 11 13
12 11 9 8 6 3 2 2 2 2 1 2 2 2 1 1 2 2 2 2 2 3 3 3 3 2 3 4 5 5 4 4 5 5 5 6 5 6 7 6 6 3 6
12 12 10 8 6 5 3 3 3 3 2 2 3 3 2 3 4 4 3 4 6 6 7 8 8 8 7 6 6 6 5 6 5 5 4 7 6 6 6 6 4 3 6
12 13 11 9 7 7 6 7 7 6 5 5 5 4 5 6 7 8 8 8 9 10 9 9 9 8 7 6 6 5 5 5 4 3 4 6 7 6 7 7 6 4 4
16 15 13 11 9 7 7 8 9 10 9 8 8 8 8 9 9 10 11 11 11 11 10 9 8 8 8 8 8 7 7 5 2 1 2 4 5 5 5 6 7 6 7
16 16 14 11 9 7 5 6 9 11 10 10 11 11 11 10 11 12 13 13 13 13 12 10 10 10 8 7 6 4 3 3 2 1 1 3 2 1 2 3 5 7 7
19 18 16 13 9 7 5 6 7 9 10 11 12 13 13 13 13 15 15 15 16 15 14 13 12 11 10 8 7 6 5 4 3 1 1 4 6 6 4 5 4 4 6
22 20 19 14 11 9 8 7 7 7 8 10 12 12 14 15 16 16 16 17 17 17 17 16 15 13 12 11 9 8 6 6 5 4 3 1 3 5 5 3 5 6 6
20 22 19 17 14 12 10 8 9 9 9 11 13 14 16 16 17 17 18 19 18 18 18 18 17 15 15 13 11 10 9 8 7 6 6 5 4 2 2 1 1 4 6
19 19 21 19 15 13 11 10 10 10 11 11 14 16 18 18 19 20 22 23 21 21 22 21 20 20 15 15 15 14 14 12 11 10 9 9 7 4 2 2 3 3 5
14 15 19 18 15 14 13 12 12 12 12 12 14 17 20 22 23 23 26 27 26 25 25 26 25 22 21 18 15 15 15 16 16 15 13 12 9 6 3 2 2 5 7
12 15 16 16 15 13 12 11 11 11 13 14 15 19 20 23 26 27 29 30 30 30 32 31 28 24 21 21 11 16 18 19 19 17 15 14 13 10 6 3 2 4 7
6 9 9 6 7 8 10 11 11 17 20 24 24 25 25 24 25 24 27 29 30 27 32 33 30 23 21 21 17 15 7 11 14 17 17 16 13 9 8 7 6 6 5
11 8 6 7 8 9 10 11 12 12 13 14 19 25 27 28 29 29 29 27 27 27 28 31 32 29 28 22 26 17 6 10 8 9 17 16 12 11 8 6 9 7 6
14 12 11 14 16 16 16 15 16 12 14 15 18 20 26 26 25 25 25 25 25 24 25 27 28 30 28 28 17 25 19 12 9 10 9 14 12 10 8 8 7 9 9
20 20 18 15 15 18 20 19 15 12 12 15 19 23 25 27 28 27 26 25 25 23 22 22 23 22 25 27 26 17 18 14 9 12 11 9 9 10 9 10 11 11 8
16 17 16 17 16 18 19 17 18 21 23 24 30 30 31 30 29 28 24 21 18 16 14 8 6 6 8 9 9 6 5 9 12 7 5 7 11 15 10 13 11 10 12
Wind_Direction
153 139 115 94 107 115 124 118 105 107 116 128 131 134 140 144 145 141 147 145 160 161 183 138 96 81 54 81 167 168 166 99 65 59 62 70 89 104 112 116 121 130 135
144 127 105 83 84 105 116 106 109 112 116 133 130 131 140 145 139 145 152 160 161 170 168 107 351 340 344 307 259 259 42 60 58 45 65 8 100 96 99 121 126 141 143
137 132 117 112 101 105 112 119 107 109 116 128 131 135 145 154 153 170 172 180 164 136 73 26 324 304 294 274 272 289 269 201 93 293 298 2 29 168 201 228 227 162 153
135 132 130 127 120 109 108 114 119 119 121 119 127 141 148 154 162 171 177 193 191 205 303 310 291 264 257 269 250 219 260 276 280 288 315 306 318 231 234 243 235 201 189
134 134 139 136 133 123 104 100 113 104 105 107 122 137 151 174 193 200 222 224 251 279 296 308 314 302 273 245 221 219 250 297 293 297 289 286 271 228 238 221 249 224 229
140 134 134 130 121 117 107 104 91 79 74 78 85 90 121 216 250 258 278 281 238 240 250 280 303 316 332 215 255 266 280 318 325 300 276 272 271 272 263 237 252 254 229
139 133 124 117 118 107 95 76 62 59 67 76 84 80 60 21 13 18 25 123 258 293 295 259 278 273 273 286 289 303 308 304 305 342 337 282 253 241 260 267 277 241 238
141 132 128 127 118 104 89 78 65 58 55 55 56 77 103 144 180 174 184 199 296 333 349 353 349 339 317 307 311 319 315 289 268 341 35 352 311 294 266 263 272 233 232
145 144 142 136 124 108 92 80 61 49 54 53 52 58 83 93 80 58 36 29 24 25 30 51 66 58 59 63 46 25 16 350 355 4 357 344 317 342 333 293 271 254 245
165 159 149 145 140 138 132 99 74 65 73 60 61 63 36 10 11 14 8 14 19 20 14 11 24 22 10 0 348 334 331 326 9 12 18 345 327 340 345 319 293 269 258
184 173 177 178 187 189 177 148 133 125 109 42 25 9 344 353 336 354 348 353 354 352 340 324 321 318 313 304 303 308 317 317 319 328 340 331 334 332 325 313 308 265 236
196 194 199 205 219 237 243 221 213 215 227 310 338 337 308 309 311 309 316 320 321 315 304 298 296 296 298 286 285 299 309 305 307 312 316 306 315 320 317 324 312 269 239
202 212 214 220 235 257 260 252 244 242 252 278 299 306 294 293 290 290 288 291 300 301 303 302 299 293 293 297 301 302 298 300 304 326 335 320 313 300 302 310 322 310 286
212 219 220 225 237 264 260 251 249 249 258 269 282 283 289 293 291 287 287 288 287 286 290 293 296 297 294 288 284 281 283 284 279 320 345 327 325 305 276 289 294 309 302
226 226 224 227 238 248 262 271 265 251 258 268 276 272 275 279 283 284 283 281 283 281 280 278 283 288 289 286 286 281 266 248 246 145 77 3 11 358 315 307 299 306 337
226 228 225 229 237 248 262 272 266 260 263 271 275 274 272 277 283 285 284 283 282 280 277 273 278 280 280 274 260 252 244 212 219 255 60 72 66 75 73 65 38 352 333
228 230 227 231 237 246 250 265 267 270 273 280 284 283 277 275 279 284 283 282 283 279 273 269 270 270 271 270 263 250 241 236 225 207 219 193 110 90 75 66 36 28 12
240 235 227 228 235 244 247 257 267 272 275 280 284 283 279 278 279 282 281 283 287 281 271 265 263 264 265 260 257 255 254 248 240 234 236 224 223 216 123 96 1 348 356
246 240 224 226 232 241 248 259 271 276 282 293 295 291 284 279 278 276 277 278 278 274 269 262 259 256 253 251 249 250 251 247 239 236 249 233 216 219 210 263 288 309 317
238 225 219 225 235 243 252 260 270 277 284 289 295 294 290 285 280 274 275 275 270 265 262 257 252 251 248 249 246 247 246 247 247 246 238 231 227 232 236 214 299 335 323
217 213 221 229 239 250 264 280 290 301 310 314 318 313 307 302 294 285 279 276 271 262 260 259 254 247 243 243 237 250 252 248 246 245 234 224 233 237 252 238 318 327 323
228 228 244 262 280 299 305 304 312 310 311 310 317 320 318 315 309 301 292 284 279 265 261 256 248 242 244 231 230 248 260 243 238 235 231 221 217 229 226 263 291 312 312
22 8 356 353 0 9 5 357 347 338 330 328 325 321 319 316 313 307 302 293 286 277 265 258 251 241 242 240 226 227 239 250 253 209 214 219 219 209 216 233 293 294 300
34 43 52 64 65 43 25 14 3 348 332 327 324 321 322 324 321 313 307 302 294 283 271 266 258 250 246 247 241 232 239 259 243 250 203 211 204 220 232 265 262 288 294
60 59 57 45 27 13 8 5 1 353 340 330 328 325 323 323 321 315 308 304 297 288 279 275 269 256 251 243 240 239 226 229 232 246 253 207 227 244 249 264 269 283 278
41 34 25 14 6 3 0 358 357 356 348 341 339 336 330 325 318 313 308 305 300 294 287 273 270 256 253 232 219 201 239 234 223 220 253 251 266 279 271 275 268 263 272